Location: Antichan
(42.9728°N, 0.6667°E)
Time: 12:24:10
(UTC+00:00)

Cosmos 1184 Rocket - Pass Details

Date: 15 August 2020
Orbit: 406 x 422 km, 81.2° (Epoch: 24 September)

Event Time Altitude Azimuth Distance (km) Brightness Sun altitude
Rises 19:29:33 0° 161° (SSE) 2,370 6.1 -6.0°
Reaches altitude 10° 19:31:51 10° 146° (SE) 1,512 5.0 -6.4°
Maximum altitude 19:34:30 23° 92° (E) 965 4.1 -6.8°
Drops below altitude 10° 19:37:10 10° 39° (NE) 1,522 5.5 -7.2°
Sets 19:39:28 0° 24° (NNE) 2,392 6.6 -7.6°
